FW2316 Weather Reports


Display with metric or nautical units.
time (UTC)temp
F
wind
direction
speed
MPH
gust
MPH
rain 1hr
in
rain 24hr
in
rain mn
in
humidity
%
barometer
mb
20260503184018 74 214 1.0 4.0 0.00 0.00 0.00 56 1014.2
20260503183518 74 336 0.0 3.0 0.00 0.00 0.00 56 1014.2
20260503183017 74 355 0.0 2.0 0.00 0.00 0.00 58 1014.2
20260503182616 73 12 0.0 2.0 0.00 0.00 0.00 58 1014.3
20260503182019 73 344 0.0 2.0 0.00 0.00 0.00 58 1014.3
20260503181515 73 23 0.0 2.0 0.00 0.00 0.00 57 1014.3
20260503181014 73 355 0.0 1.0 0.00 0.00 0.00 59 1014.4
20260503180513 73 215 0.0 2.0 0.00 0.00 0.00 60 1014.4
20260503180012 72 345 0.0 2.0 0.00 0.00 0.00 61 1014.6
20260503175511 72 24 0.0 2.0 0.00 0.00 0.00 59 1014.5
20260503175011 72 319 0.0 3.0 0.00 0.00 0.00 61 1014.6
20260503174515 72 215 0.0 3.0 0.00 0.00 0.00 60 1014.6
20260503174009 72 221 0.0 3.0 0.00 0.00 0.00 61 1014.6
20260503173509 72 39 0.0 2.0 0.00 0.00 0.00 60 1014.6
20260503173008 71 321 0.0 1.0 0.00 0.00 0.00 62 1014.6
20260503172607 71 225 0.0 2.0 0.00 0.00 0.00 61 1014.7
20260503172007 71 257 0.0 2.0 0.00 0.00 0.00 61 1014.8
20260503171508 71 227 0.0 2.0 0.00 0.00 0.00 62 1014.8
20260503171008 71 245 0.0 3.0 0.00 0.00 0.00 62 1014.7
20260503170508 70 217 1.0 3.0 0.00 0.00 0.00 62 1014.8
20260503150547 67 74 0.0 1.0 0.00 0.00 0.00 55 1015.1
20260503131026 53 259 0.0 2.0 0.00 0.00 0.00 82 1015.0
20260503130527 53 259 0.0 1.0 0.00 0.00 0.00 83 1015.0
20260503110516 55 86 0.0 0.0 0.00 0.00 0.00 81 1015.2
20260503090502 59 279 1.0 4.0 0.00 0.00 0.00 82 1015.4
20260503081512 56 177 0.0 1.0 0.00 0.00 0.00 88 1015.8
20260503081003 56 176 0.0 1.0 0.00 0.00 0.00 89 1015.8
20260503080503 56 176 0.0 1.0 0.00 0.00 0.00 89 1015.7
20260503072505 58 284 0.0 0.0 0.00 0.00 0.00 88 1015.6
20260503071603 58 284 0.0 0.0 0.00 0.00 0.00 88 1015.7
20260503071102 58 284 0.0 0.0 0.00 0.00 0.00 88 1015.5
20260503070600 58 284 0.0 0.0 0.00 0.00 0.00 88 1015.5
20260503070105 58 284 0.0 0.0 0.00 0.00 0.00 87 1015.5
20260503060103 60 286 0.0 3.0 0.00 0.00 0.00 86 1015.2
20260503055102 60 287 1.0 4.0 0.00 0.00 0.00 85 1015.2
20260503054604 60 288 1.0 2.0 0.00 0.00 0.00 84 1015.1
20260503054058 60 288 0.0 2.0 0.00 0.00 0.00 84 1015.3
20260503053558 60 288 0.0 0.0 0.00 0.00 0.00 84 1015.2
20260503053058 60 288 0.0 0.0 0.00 0.00 0.00 83 1015.4
20260503052558 61 288 0.0 1.0 0.00 0.00 0.00 82 1015.3
20260503052001 61 288 0.0 1.0 0.00 0.00 0.00 82 1015.3
20260503051501 61 288 0.0 1.0 0.00 0.00 0.00 82 1015.3
20260503051100 61 288 0.0 0.0 0.00 0.00 0.00 82 1015.3
20260503050600 61 288 0.0 2.0 0.00 0.00 0.00 81 1015.3
20260503050100 62 288 0.0 2.0 0.00 0.00 0.00 80 1015.3
20260503045600 62 288 0.0 2.0 0.00 0.00 0.00 79 1015.2
20260503045100 63 288 0.0 2.0 0.00 0.00 0.00 77 1015.1
20260503044610 63 288 0.0 2.0 0.00 0.00 0.00 75 1015.1
20260503044100 64 288 0.0 1.0 0.00 0.00 0.00 74 1015.0
20260503043559 64 288 0.0 1.0 0.00 0.00 0.00 73 1015.0
20260503043100 65 288 0.0 0.0 0.00 0.00 0.00 71 1015.0
20260503042600 64 214 0.0 0.0 0.00 0.00 0.00 71 1014.9
20260503041601 64 215 0.0 1.0 0.00 0.00 0.00 70 1014.8
20260503041059 64 214 0.0 0.0 0.00 0.00 0.00 70 1014.8
20260503040559 65 214 0.0 0.0 0.00 0.00 0.00 68 1014.6
20260503040104 65 214 0.0 0.0 0.00 0.00 0.00 68 1014.7
20260503035558 66 215 0.0 0.0 0.00 0.00 0.00 69 1014.6
20260503035101 66 215 0.0 0.0 0.00 0.00 0.00 68 1014.6
20260503034604 66 214 0.0 0.0 0.00 0.00 0.00 68 1014.5
20260503034058 66 215 0.0 0.0 0.00 0.00 0.00 69 1014.4
20260503033601 67 214 0.0 0.0 0.00 0.00 0.00 68 1014.3
20260503033059 67 215 0.0 0.0 0.00 0.00 0.00 67 1014.2
20260503032558 69 288 0.0 1.0 0.00 0.00 0.00 67 1014.2
20260503031557 69 288 0.0 1.0 0.00 0.00 0.00 66 1014.1
20260503031057 69 288 0.0 1.0 0.00 0.00 0.00 65 1014.0
20260503030556 70 288 0.0 1.0 0.00 0.00 0.00 64 1014.0
20260503030126 70 288 0.0 1.0 0.00 0.00 0.00 62 1014.0
20260503025556 71 288 0.0 2.0 0.00 0.00 0.00 61 1014.0
20260503025100 71 288 0.0 3.0 0.00 0.00 0.00 60 1013.9
20260503024604 71 288 0.0 3.0 0.00 0.00 0.00 61 1013.9
20260503024056 72 288 2.0 4.0 0.00 0.00 0.00 60 1013.9
20260503023557 72 288 1.0 4.0 0.00 0.00 0.00 59 1014.0
20260503023056 73 288 1.0 5.0 0.00 0.00 0.00 59 1013.7
20260503022556 73 288 2.0 5.0 0.00 0.00 0.00 58 1013.8
20260503021605 74 289 3.0 7.0 0.00 0.00 0.00 57 1013.8
20260503021053 74 290 4.0 7.0 0.00 0.00 0.00 57 1013.7
20260503020553 74 289 2.0 7.0 0.00 0.00 0.00 57 1013.8
20260503020053 74 287 2.0 7.0 0.00 0.00 0.00 57 1013.7
20260503015552 74 287 3.0 8.0 0.00 0.00 0.00 57 1013.7
20260503015052 74 292 4.0 8.0 0.00 0.00 0.00 56 1013.7
20260503014603 75 285 4.0 8.0 0.00 0.00 0.00 56 1013.7
20260503014051 75 292 2.0 9.0 0.00 0.00 0.00 56 1013.7
20260503013551 75 288 3.0 9.0 0.00 0.00 0.00 56 1013.6
20260503013053 76 275 5.0 9.0 0.00 0.00 0.00 56 1013.7
20260503012550 75 268 2.0 6.0 0.00 0.00 0.00 57 1013.8
20260503011558 75 275 3.0 7.0 0.00 0.00 0.00 57 1013.7
20260503011049 76 288 3.0 8.0 0.00 0.00 0.00 56 1013.6
20260503010549 75 285 6.0 8.0 0.00 0.00 0.00 57 1013.7
20260503010103 75 285 3.0 9.0 0.00 0.00 0.00 57 1013.7
20260503005550 76 304 5.0 9.0 0.00 0.00 0.00 57 1013.9
20260503005046 76 286 2.0 7.0 0.00 0.00 0.00 58 1013.7
20260503004550 75 298 4.0 8.0 0.00 0.00 0.00 58 1013.7
20260503004047 76 312 3.0 8.0 0.00 0.00 0.00 59 1013.9
20260503003545 76 252 4.0 8.0 0.00 0.00 0.00 58 1013.9
20260503003055 76 273 4.0 11.0 0.00 0.00 0.00 57 1013.9
20260503002544 76 279 4.0 9.0 0.00 0.00 0.00 59 1013.9
20260503001543 75 278 3.0 9.0 0.00 0.00 0.00 59 1013.9
20260503001144 76 282 6.0 9.0 0.00 0.00 0.00 58 1013.9
20260503000540 75 275 5.0 10.0 0.00 0.00 0.00 61 1013.9
20260503000040 75 244 3.0 10.0 0.00 0.00 0.00 59 1014.0
20260502235543 76 257 5.0 10.0 0.00 0.00 0.00 58 1013.9
20260502235040 76 288 5.0 10.0 0.00 0.00 0.00 57 1014.0
20260502234541 76 265 3.0 8.0 0.00 0.00 0.00 58 1014.0
20260502234041 76 305 5.0 10.0 0.00 0.00 0.00 57 1014.2
20260502233538 76 273 3.0 12.0 0.00 0.00 0.00 58 1014.3
20260502233036 76 287 7.0 12.0 0.00 0.00 0.00 58 1014.3
20260502232535 74 210 0.0 4.0 0.00 0.00 0.00 60 1014.4
20260502231537 74 196 1.0 4.0 0.00 0.00 0.00 60 1014.5
20260502231034 73 213 1.0 3.0 0.00 0.00 0.00 62 1014.6
20260502230534 72 215 0.0 3.0 0.00 0.00 0.00 63 1014.7
20260502230034 72 223 1.0 3.0 0.00 0.00 0.00 63 1014.9
20260502225532 72 175 0.0 4.0 0.00 0.00 0.00 62 1014.9
20260502225031 72 199 0.0 3.0 0.00 0.00 0.00 62 1015.0
20260502224531 72 200 0.0 3.0 0.00 0.00 0.00 62 1015.1
20260502224034 72 219 0.0 3.0 0.00 0.00 0.00 61 1015.2
20260502223533 72 198 1.0 3.0 0.00 0.00 0.00 60 1015.2
20260502223030 72 217 0.0 3.0 0.00 0.00 0.00 60 1015.2
20260502222529 73 225 1.0 4.0 0.00 0.00 0.00 60 1015.3
20260502221526 73 19 0.0 4.0 0.00 0.00 0.00 59 1015.4
20260502221025 73 240 1.0 4.0 0.00 0.00 0.00 60 1015.5
20260502220525 72 265 0.0 6.0 0.00 0.00 0.00 60 1015.5
20260502220025 72 219 1.0 6.0 0.00 0.00 0.00 60 1015.6
20260502215525 72 198 2.0 6.0 0.00 0.00 0.00 59 1015.6
20260502215023 72 188 0.0 5.0 0.00 0.00 0.00 60 1015.7
20260502214521 72 244 1.0 4.0 0.00 0.00 0.00 61 1015.7
20260502214023 72 355 0.0 3.0 0.00 0.00 0.00 61 1015.8
20260502213521 71 213 0.0 4.0 0.00 0.00 0.00 61 1015.7
20260502213035 71 241 1.0 5.0 0.00 0.00 0.00 61 1015.8
20260502212519 72 202 0.0 4.0 0.00 0.00 0.00 60 1015.9
20260502211522 72 215 0.0 4.0 0.00 0.00 0.00 59 1016.0
20260502211018 72 259 0.0 7.0 0.00 0.00 0.00 62 1016.0
20260502210521 71 325 1.0 7.0 0.00 0.00 0.00 63 1016.0
20260502210016 71 200 0.0 2.0 0.00 0.00 0.00 62 1016.1
20260502205515 71 197 0.0 2.0 0.00 0.00 0.00 64 1016.1
20260502205015 70 225 0.0 2.0 0.00 0.00 0.00 63 1016.2
20260502204513 70 73 1.0 3.0 0.00 0.00 0.00 63 1016.2
20260502204012 70 63 0.0 3.0 0.00 0.00 0.00 62 1016.2
20260502203512 69 300 0.0 3.0 0.00 0.00 0.00 63 1016.2
20260502203012 69 40 0.0 1.0 0.00 0.00 0.00 65 1016.2
20260502202511 70 360 2.0 9.0 0.00 0.00 0.00 64 1016.3
20260502201523 69 313 6.0 9.0 0.00 0.00 0.00 66 1016.3
20260502201047 70 279 5.0 8.0 0.00 0.00 0.00 65 1016.4
20260502200512 68 283 3.0 8.0 0.00 0.00 0.00 68 1016.4
20260502200011 69 208 4.0 6.0 0.00 0.00 0.00 67 1016.4
20260502195508 68 251 2.0 8.0 0.00 0.00 0.00 70 1016.6
20260502195008 67 236 3.0 8.0 0.00 0.00 0.00 70 1016.6
20260502194512 67 230 1.0 9.0 0.00 0.00 0.00 71 1016.7
20260502194009 67 235 6.0 9.0 0.00 0.00 0.00 71 1016.7
20260502193505 66 252 4.0 7.0 0.00 0.00 0.00 70 1016.7
20260502193005 65 198 0.0 7.0 0.00 0.00 0.00 72 1016.7
20260502192503 66 192 3.0 7.0 0.00 0.00 0.00 70 1016.8
20260502191503 68 301 4.0 10.0 0.00 0.00 0.00 66 1017.0
20260502191002 65 303 4.0 10.0 0.00 0.00 0.00 72 1017.1
20260502190501 64 209 4.0 7.0 0.00 0.00 0.00 73 1017.1
20260502190001 63 220 1.0 6.0 0.00 0.00 0.00 72 1017.2
20260502185501 65 236 4.0 7.0 0.00 0.00 0.00 70 1017.2
20260502185059 64 261 2.0 8.0 0.00 0.00 0.00 73 1017.2
20260502184603 64 251 4.0 8.0 0.00 0.00 0.00 71 1017.4